When you browse on this site, cookies collect data to enhance your experience and personalize the content and advertising you see.
Visit our Privacy Policy to learn more. By continuing to use the site, you agree to this use of cookies and data.
  • In Hungary
  • List of Countries
  • For 7 days
  • Water Temperature
  • Satellite Maps
  • Weather Map
  • News
  • Weather Widgets
  • user-avatar
    Login

    Hourly Weather Novelda

    Today, 20 January, Sunday

    Time Temperature Precipitation Wind Pressure Humidity
    00:00 +9°C° 0.4 mm 1 mps 733 mmHg 79%
    01:00 +9°C° 0.1 mm 1 mps 732 mmHg 80%
    02:00 +8°C° 0.1 mm 2 mps 732 mmHg 81%
    03:00 +8°C° 0.1 mm 2 mps 731 mmHg 82%
    04:00 +7°C° 0 mm 2 mps 731 mmHg 84%
    05:00 +7°C° 0 mm 2 mps 730 mmHg 85%
    06:00 +6°C° 0 mm 2 mps 730 mmHg 86%
    07:00 +8°C° 0 mm 2 mps 730 mmHg 82%
    08:00 +9°C° 0 mm 2 mps 730 mmHg 78%
    09:00 +10°C° 0 mm 3 mps 730 mmHg 74%
    10:00 +11°C° 0.1 mm 3 mps 731 mmHg 70%
    11:00 +13°C° 0.1 mm 4 mps 731 mmHg 65%
    12:00 +14°C° 0.1 mm 4 mps 731 mmHg 61%
    13:00 +13°C° 0.2 mm 5 mps 731 mmHg 64%
    14:00 +12°C° 0.2 mm 5 mps 732 mmHg 68%
    15:00 +10°C° 0.2 mm 6 mps 732 mmHg 71%
    16:00 +10°C° 0 mm 5 mps 732 mmHg 69%
    17:00 +9°C° 0 mm 5 mps 733 mmHg 68%
    18:00 +8°C° 0 mm 4 mps 733 mmHg 66%
    19:00 +8°C° 0 mm 4 mps 734 mmHg 66%
    20:00 +7°C° 0 mm 4 mps 735 mmHg 67%
    21:00 +7°C° 0 mm 4 mps 735 mmHg 67%
    22:00 +6°C° 0 mm 4 mps 736 mmHg 67%
    23:00 +6°C° 0 mm 4 mps 736 mmHg 67%

    Tomorrow, 21 January, Monday

    Time Temperature Precipitation Wind Pressure Humidity
    00:00 +5°C° 0 mm 4 mps 736 mmHg 68%
    01:00 +5°C° 0 mm 4 mps 737 mmHg 68%
    02:00 +5°C° 0 mm 4 mps 737 mmHg 69%
    03:00 +4°C° 0 mm 4 mps 737 mmHg 69%
    04:00 +4°C° 0 mm 4 mps 737 mmHg 70%
    05:00 +4°C° 0 mm 4 mps 737 mmHg 70%
    06:00 +3°C° 0 mm 4 mps 737 mmHg 71%
    07:00 +4°C° 0 mm 4 mps 738 mmHg 67%
    08:00 +5°C° 0 mm 5 mps 738 mmHg 64%
    09:00 +6°C° 0 mm 5 mps 739 mmHg 60%
    10:00 +8°C° 0 mm 5 mps 739 mmHg 54%
    11:00 +10°C° 0 mm 4 mps 739 mmHg 49%
    12:00 +11°C° 0 mm 4 mps 739 mmHg 43%
    13:00 +12°C° 0 mm 4 mps 738 mmHg 41%
    14:00 +12°C° 0 mm 4 mps 738 mmHg 40%
    15:00 +12°C° 0 mm 4 mps 738 mmHg 38%
    16:00 +11°C° 0 mm 4 mps 738 mmHg 42%
    17:00 +8°C° 0 mm 4 mps 739 mmHg 47%
    18:00 +8°C° 0 mm 3 mps 739 mmHg 51%
    19:00 +6°C° 0 mm 4 mps 739 mmHg 52%
    20:00 +6°C° 0 mm 4 mps 739 mmHg 52%
    21:00 +5°C° 0 mm 5 mps 740 mmHg 53%
    22:00 +5°C° 0 mm 5 mps 740 mmHg 54%
    23:00 +4°C° 0 mm 4 mps 740 mmHg 56%

    Day after tomorrow, 22 January, Tuesday

    Time Temperature Precipitation Wind Pressure Humidity
    00:00 +4°C° 0 mm 4 mps 740 mmHg 58%
    01:00 +3°C° 0 mm 4 mps 739 mmHg 60%
    02:00 +3°C° 0 mm 4 mps 739 mmHg 61%
    03:00 +2°C° 0 mm 5 mps 738 mmHg 63%
    04:00 +2°C° 0 mm 5 mps 738 mmHg 64%
    05:00 +1°C° 0 mm 5 mps 738 mmHg 65%
    06:00 +1°C° 0 mm 5 mps 738 mmHg 66%
    07:00 +2°C° 0 mm 5 mps 737 mmHg 62%
    08:00 +3°C° 0 mm 6 mps 737 mmHg 59%
    09:00 +5°C° 0 mm 6 mps 737 mmHg 55%
    10:00 +6°C° 0 mm 7 mps 737 mmHg 49%
    11:00 +9°C° 0 mm 8 mps 736 mmHg 43%
    12:00 +11°C° 0 mm 9 mps 736 mmHg 37%
    13:00 +11°C° 0.1 mm 9 mps 735 mmHg 40%
    14:00 +9°C° 0.1 mm 10 mps 734 mmHg 44%
    15:00 +9°C° 0.1 mm 10 mps 733 mmHg 48%
    16:00 +9°C° 0 mm 10 mps 733 mmHg 52%
    17:00 +8°C° 0 mm 9 mps 733 mmHg 55%
    18:00 +7°C° 0 mm 9 mps 733 mmHg 59%
    19:00 +7°C° 0 mm 8 mps 733 mmHg 58%
    20:00 +6°C° 0 mm 8 mps 733 mmHg 57%
    21:00 +6°C° 0 mm 7 mps 733 mmHg 56%
    22:00 +6°C° 0 mm 9 mps 733 mmHg 57%
    23:00 +5°C° 0 mm 10 mps 733 mmHg 57%

    23 January, Wednesday

    Time Temperature Precipitation Wind Pressure Humidity
    00:00 +4°C° 0 mm 11 mps 732 mmHg 58%
    01:00 +4°C° 0 mm 11 mps 732 mmHg 59%
    02:00 +4°C° 0 mm 11 mps 732 mmHg 60%
    03:00 +3°C° 0 mm 11 mps 732 mmHg 61%
    04:00 +3°C° 0 mm 11 mps 731 mmHg 61%
    05:00 +3°C° 0 mm 12 mps 731 mmHg 62%
    06:00 +3°C° 0 mm 12 mps 731 mmHg 62%
    07:00 +3°C° 0 mm 12 mps 731 mmHg 59%
    08:00 +4°C° 0 mm 12 mps 731 mmHg 56%
    09:00 +5°C° 0 mm 13 mps 730 mmHg 53%
    10:00 +6°C° 0 mm 14 mps 730 mmHg 50%
    11:00 +9°C° 0 mm 16 mps 729 mmHg 47%
    12:00 +10°C° 0 mm 18 mps 729 mmHg 43%
    13:00 +10°C° 0.2 mm 16 mps 728 mmHg 48%
    14:00 +9°C° 0.2 mm 15 mps 728 mmHg 53%
    15:00 +9°C° 0.2 mm 14 mps 727 mmHg 58%
    16:00 +8°C° 0.3 mm 11 mps 728 mmHg 59%
    17:00 +9°C° 0.3 mm 8 mps 728 mmHg 59%
    18:00 +8°C° 0.3 mm 5 mps 729 mmHg 59%
    19:00 +7°C° 0 mm 6 mps 729 mmHg 58%
    20:00 +4°C° 0 mm 7 mps 730 mmHg 57%
    21:00 +3°C° 0 mm 7 mps 731 mmHg 56%
    22:00 +3°C° 0 mm 7 mps 731 mmHg 56%
    23:00 +1°C° 0 mm 8 mps 731 mmHg 56%

    24 January, Thursday

    Time Temperature Precipitation Wind Pressure Humidity
    00:00 +1°C° 0 mm 8 mps 731 mmHg 55%
    01:00 +1°C° 0 mm 9 mps 731 mmHg 54%
    02:00 +1°C° 0 mm 9 mps 731 mmHg 54%
    03:00 +1°C° 0 mm 10 mps 730 mmHg 53%
    04:00 +1°C° 0 mm 10 mps 730 mmHg 54%
    05:00 +1°C° 0 mm 10 mps 730 mmHg 55%
    06:00 +1°C° 0 mm 10 mps 730 mmHg 56%
    07:00 +1°C° 0 mm 10 mps 730 mmHg 54%
    08:00 +2°C° 0 mm 10 mps 731 mmHg 53%
    09:00 +3°C° 0 mm 11 mps 731 mmHg 51%
    10:00 +6°C° 0 mm 11 mps 731 mmHg 49%
    11:00 +7°C° 0 mm 11 mps 731 mmHg 46%
    12:00 +9°C° 0 mm 11 mps 730 mmHg 43%
    13:00 +9°C° 0.1 mm 11 mps 730 mmHg 45%
    14:00 +9°C° 0.1 mm 10 mps 729 mmHg 48%
    15:00 +10°C° 0.1 mm 9 mps 729 mmHg 50%
    16:00 +10°C° 0.1 mm 8 mps 729 mmHg 52%
    17:00 +9°C° 0.1 mm 7 mps 729 mmHg 54%
    18:00 +8°C° 0.1 mm 5 mps 729 mmHg 56%
    19:00 +7°C° 0 mm 6 mps 729 mmHg 58%
    20:00 +5°C° 0 mm 6 mps 729 mmHg 59%
    21:00 +5°C° 0 mm 7 mps 730 mmHg 61%
    22:00 +4°C° 0 mm 8 mps 730 mmHg 55%
    23:00 +2°C° 0 mm 9 mps 730 mmHg 50%

    25 January, Friday

    Time Temperature Precipitation Wind Pressure Humidity
    00:00 +2°C° 0 mm 11 mps 731 mmHg 44%
    01:00 +1°C° 0 mm 10 mps 731 mmHg 44%
    02:00 +1°C° 0 mm 10 mps 731 mmHg 43%
    03:00 0°C° 0 mm 9 mps 731 mmHg 43%
    04:00 0°C° 0 mm 8 mps 731 mmHg 45%
    05:00 -1°C° 0 mm 7 mps 732 mmHg 46%
    06:00 -1°C° 0 mm 6 mps 732 mmHg 48%
    07:00 -1°C° 0 mm 6 mps 733 mmHg 46%
    08:00 +1°C° 0 mm 5 mps 734 mmHg 44%
    09:00 +1°C° 0 mm 4 mps 735 mmHg 42%
    10:00 +4°C° 0 mm 3 mps 735 mmHg 38%
    11:00 +6°C° 0 mm 2 mps 736 mmHg 35%
    12:00 +8°C° 0 mm 2 mps 736 mmHg 31%
    13:00 +9°C° 0 mm 2 mps 737 mmHg 30%
    14:00 +10°C° 0 mm 1 mps 737 mmHg 29%
    15:00 +11°C° 0 mm 1 mps 737 mmHg 28%
    16:00 +9°C° 0 mm 2 mps 737 mmHg 31%
    17:00 +7°C° 0 mm 2 mps 737 mmHg 34%
    18:00 +6°C° 0 mm 2 mps 738 mmHg 37%
    19:00 +5°C° 0 mm 2 mps 738 mmHg 36%
    20:00 +4°C° 0 mm 3 mps 739 mmHg 35%
    21:00 +4°C° 0 mm 3 mps 739 mmHg 34%
    22:00 +3°C° 0 mm 3 mps 739 mmHg 36%
    23:00 +3°C° 0 mm 3 mps 739 mmHg 39%
    Show more